WI1SKY Weather Reports


Display with metric or nautical units.
time (UTC)temp
F
wind
direction
speed
MPH
gust
MPH
rain 1hr
in
rain 24hr
in
rain mn
in
humidity
%
barometer
mb
20260903051551 72 178 0.0 1.0 0.00 1.03 0.00 92 1010.9
20260903051051 72 178 0.0 1.0 0.00 1.03 0.00 92 1011.0
20260903050858 72 178 0.0 1.0 0.00 1.03 0.00 92 1011.0
20260903050048 72 178 0.0 1.0 0.00 1.03 0.00 92 1011.0
20260903045859 72 178 0.0 1.0 0.00 1.03 1.03 92 1011.0
20260903045136 72 178 0.0 0.0 0.00 1.03 1.03 92 1011.0
20260903044049 72 178 0.0 0.0 0.00 1.06 1.03 92 1011.1
20260903043547 73 178 0.0 0.0 0.00 1.18 1.03 91 1011.1
20260903043206 73 178 0.0 0.0 0.00 1.31 1.03 91 1011.1
20260903043131 73 178 0.0 0.0 0.00 1.21 1.03 91 1011.1
20260903042044 73 178 0.0 0.0 0.00 1.33 1.03 91 1011.1
20260903041543 73 178 0.0 0.0 0.00 1.38 1.03 91 1011.1
20260903041042 73 178 0.0 0.0 0.00 1.38 1.03 91 1011.1
20260903040540 73 178 0.0 0.0 0.00 1.38 1.03 91 1011.1
20260903040038 73 178 0.0 0.0 0.00 1.38 1.03 91 1011.2
20260903035535 73 178 0.0 0.0 0.00 1.38 1.03 91 1011.1
20260903035343 73 178 0.0 0.0 0.00 1.38 1.03 91 1011.2
20260903034532 74 178 0.0 0.0 0.00 1.38 1.03 90 1011.2
20260903034030 74 178 0.0 0.0 0.00 1.38 1.03 90 1011.2
20260903033529 74 178 0.0 1.0 0.00 1.38 1.03 90 1011.2
20260903033030 74 178 0.0 1.0 0.00 1.38 1.03 90 1011.2
20260903032530 74 178 0.0 0.0 0.00 1.38 1.03 90 1011.2
20260903032030 74 178 0.0 1.0 0.00 1.38 1.03 90 1011.1
20260903031529 74 178 0.0 1.0 0.00 1.38 1.03 90 1011.1
20260903031033 74 178 0.0 0.0 0.00 1.38 1.03 89 1011.1
20260903030534 74 178 0.0 0.0 0.00 1.38 1.03 89 1011.1
20260903030030 74 178 0.0 0.0 0.00 1.38 1.03 89 1011.1
20260903025531 75 178 0.0 0.0 0.00 1.38 1.03 88 1011.1
20260903025031 75 178 0.0 0.0 0.00 1.38 1.03 88 1011.1
20260903024530 75 178 0.0 0.0 0.00 1.38 1.03 87 1011.2
20260903024030 75 178 0.0 0.0 0.00 1.38 1.03 87 1011.2
20260903023837 76 178 0.0 0.0 0.00 1.38 1.03 86 1011.2
20260903023434 76 178 0.0 0.0 0.00 1.38 1.03 86 1011.1
20260903023427 76 178 0.0 0.0 0.00 1.38 1.03 86 1011.1
20260903022030 76 178 0.0 0.0 0.00 1.38 1.03 85 1011.0
20260903021530 76 178 0.0 0.0 0.00 1.38 1.03 85 1011.1
20260903021029 76 178 0.0 0.0 0.00 1.38 1.03 85 1011.0
20260903020530 76 178 0.0 1.0 0.00 1.38 1.03 85 1010.9
20260903020029 76 178 0.0 1.0 0.00 1.38 1.03 85 1010.9
20260903015529 77 178 0.0 1.0 0.00 1.38 1.03 84 1010.9
20260903015029 77 178 0.0 1.0 0.00 1.38 1.03 84 1010.9
20260903014827 77 178 0.0 1.0 0.00 1.38 1.03 83 1010.8
20260903014030 77 178 0.0 0.0 0.00 1.38 1.03 82 1010.8
20260903013530 78 178 0.0 0.0 0.00 1.38 1.03 82 1010.7
20260903013336 78 178 0.0 1.0 0.00 1.38 1.03 81 1010.6
20260903012529 78 178 1.0 2.0 0.00 1.38 1.03 80 1010.5
20260903012030 78 178 1.0 2.0 0.00 1.38 1.03 80 1010.6
20260903011529 78 178 1.0 3.0 0.00 1.38 1.03 80 1010.6
20260903011029 79 178 1.0 3.0 0.00 1.38 1.03 79 1010.5
20260903010529 79 202 0.0 0.0 0.00 1.38 1.03 78 1010.5
20260903010028 79 202 0.0 0.0 0.00 1.38 1.03 78 1010.5
20260903005831 79 202 0.0 0.0 0.00 1.38 1.03 79 1010.4
20260903005030 80 202 0.0 0.0 0.00 1.38 1.03 79 1010.5
20260903004530 80 202 0.0 0.0 0.00 1.38 1.03 78 1010.5
20260903004030 80 202 0.0 0.0 0.00 1.38 1.03 78 1010.5
20260903003529 80 202 0.0 0.0 0.00 1.38 1.03 78 1010.5
20260903003029 81 202 0.0 0.0 0.00 1.38 1.03 77 1010.4
20260903002529 81 202 0.0 0.0 0.00 1.38 1.03 77 1010.4
20260903002029 81 202 0.0 0.0 0.00 1.39 1.03 75 1010.4
20260903001529 82 202 0.0 0.0 0.00 1.39 1.03 74 1010.4
20260903001324 82 202 0.0 0.0 0.00 1.39 1.03 74 1010.3
20260903000532 82 202 0.0 0.0 0.00 1.39 1.03 71 1010.1
20260903000135 83 202 0.0 0.0 0.00 1.39 1.03 74 1009.8
20260903000115 82 202 0.0 0.0 0.00 1.39 1.03 72 1009.8
20260902235031 83 202 0.0 0.0 0.00 1.39 1.03 72 1010.0
20260902234530 83 201 0.0 0.0 0.00 1.39 1.03 71 1010.1
20260902234030 83 202 0.0 0.0 0.00 1.39 1.03 70 1010.1
20260902233532 84 202 0.0 0.0 0.00 1.39 1.03 68 1010.0
20260902233130 84 202 1.0 3.0 0.00 1.39 1.03 68 1010.0
20260902233111 84 202 0.0 2.0 0.00 1.39 1.03 68 1010.0
20260902232140 84 203 1.0 2.0 0.00 1.39 1.03 67 1010.0
20260902232112 84 202 1.0 3.0 0.00 1.39 1.03 67 1010.0
20260902231029 84 203 1.0 2.0 0.00 1.39 1.03 67 1010.0
20260902230529 85 202 1.0 2.0 0.00 1.39 1.03 66 1010.0
20260902230325 85 202 1.0 3.0 0.00 1.39 1.03 66 1010.1
20260902225528 85 202 2.0 3.0 0.00 1.39 1.03 66 1010.1
20260902225031 85 214 2.0 3.0 0.00 1.39 1.03 65 1010.1
20260902224529 85 214 1.0 3.0 0.00 1.39 1.03 66 1010.1
20260902224029 85 214 1.0 3.0 0.00 1.39 1.03 65 1010.0
20260902223531 85 214 1.0 3.0 0.00 1.39 1.03 66 1010.0
20260902223029 85 214 1.0 3.0 0.00 1.39 1.03 64 1010.1
20260902222528 85 214 1.0 3.0 0.00 1.39 1.03 64 1010.1
20260902222028 85 214 2.0 3.0 0.00 1.39 1.03 63 1010.1
20260902221529 85 214 2.0 3.0 0.00 1.39 1.03 65 1010.1
20260902221028 85 231 2.0 3.0 0.00 1.39 1.03 65 1010.1
20260902220531 85 228 2.0 3.0 0.00 1.39 1.03 65 1010.1
20260902220032 85 216 2.0 4.0 0.00 1.39 1.03 64 1010.1
20260902215531 85 217 2.0 4.0 0.00 1.39 1.03 65 1010.3
20260902215338 85 220 2.0 3.0 0.00 1.39 1.03 65 1010.3
20260902214530 85 220 2.0 3.0 0.00 1.39 1.03 64 1010.3
20260902214030 85 220 2.0 4.0 0.00 1.39 1.03 66 1010.3
20260902213530 85 203 2.0 4.0 0.00 1.39 1.03 65 1010.3
20260902213030 85 214 2.0 4.0 0.00 1.39 1.03 66 1010.3
20260902212835 85 214 2.0 4.0 0.00 1.39 1.03 65 1010.3
20260902212337 85 213 2.0 5.0 0.00 1.39 1.03 67 1010.3
20260902211841 86 196 2.0 5.0 0.00 1.39 1.03 65 1010.3
20260902211025 86 197 1.0 4.0 0.00 1.39 1.03 66 1010.4
20260902210524 86 285 1.0 4.0 0.00 1.39 1.03 66 1010.5
20260902210330 85 286 2.0 5.0 0.00 1.39 1.03 68 1010.6
20260902205520 85 165 2.0 5.0 0.00 1.39 1.03 66 1010.6
20260902205019 86 234 2.0 5.0 0.00 1.39 1.03 67 1010.6
20260902204516 86 202 2.0 4.0 0.00 1.39 1.03 66 1010.6
20260902204017 86 187 2.0 3.0 0.00 1.39 1.03 66 1010.5
20260902203516 86 186 1.0 3.0 0.00 1.39 1.03 66 1010.5
20260902203323 86 234 1.0 3.0 0.00 1.39 1.03 67 1010.6
20260902202820 86 234 2.0 4.0 0.00 1.39 1.03 64 1010.7
20260902202013 86 234 2.0 4.0 0.00 1.39 1.03 65 1010.8
20260902201513 86 196 2.0 4.0 0.00 1.39 1.03 65 1010.8
20260902201010 86 220 2.0 4.0 0.00 1.39 1.03 67 1010.8
20260902200511 86 202 2.0 4.0 0.00 1.39 1.03 63 1010.9
20260902200319 86 252 2.0 5.0 0.00 1.39 1.03 68 1011.0
20260902195511 86 232 1.0 5.0 0.00 1.39 1.03 63 1011.1
20260902195323 86 221 1.0 3.0 0.00 1.39 1.03 65 1011.1
20260902194817 86 220 1.0 3.0 0.00 1.39 1.03 65 1011.1
20260902194011 86 267 2.0 5.0 0.00 1.39 1.03 67 1011.1
20260902193511 86 267 2.0 5.0 0.00 1.39 1.03 62 1011.2
20260902193008 85 327 2.0 5.0 0.00 1.39 1.03 64 1011.3
20260902192509 85 207 2.0 4.0 0.00 1.39 1.03 62 1011.4
20260902192009 85 204 3.0 4.0 0.00 1.39 1.03 65 1011.3
20260902191508 84 215 3.0 6.0 0.00 1.39 1.03 66 1011.3
20260902191007 84 171 4.0 7.0 0.00 1.39 1.03 66 1011.4
20260902190507 84 174 5.0 7.0 0.00 1.39 1.03 66 1011.5
20260902190006 84 202 4.0 6.0 0.00 1.39 1.03 67 1011.7
20260902185505 84 211 3.0 5.0 0.00 1.39 1.03 68 1011.6
20260902185005 84 209 2.0 4.0 0.00 1.39 1.03 69 1011.7
20260902184503 84 188 2.0 4.0 0.00 1.39 1.03 66 1011.6
20260902184004 84 207 2.0 4.0 0.00 1.39 1.03 70 1011.5
20260902183809 84 198 3.0 5.0 0.00 1.39 1.03 70 1011.6
20260902183004 84 209 3.0 5.0 0.00 1.39 1.03 69 1011.6
20260902182504 83 194 2.0 5.0 0.00 1.39 1.03 70 1011.5
20260902182004 83 236 1.0 4.0 0.00 1.39 1.03 71 1011.6
20260902181502 83 225 1.0 5.0 0.00 1.39 1.03 72 1011.5
20260902181003 82 225 2.0 5.0 0.00 1.39 1.03 73 1011.6
20260902180502 82 188 2.0 5.0 0.00 1.39 1.03 72 1011.7
20260902180317 82 197 2.0 5.0 0.00 1.39 1.03 73 1011.7
20260902175821 82 199 0.0 3.0 0.00 1.39 1.03 76 1011.6
20260902175004 81 230 1.0 4.0 0.00 1.39 1.03 77 1011.5
20260902174504 81 230 2.0 4.0 0.00 1.39 1.03 75 1011.5
20260902174004 80 226 1.0 4.0 0.00 1.39 1.03 77 1011.6
20260902173503 80 236 1.0 3.0 0.00 1.39 1.03 79 1011.6
20260902173004 80 206 2.0 5.0 0.00 1.39 1.03 81 1011.7
20260902172501 79 206 2.0 5.0 0.00 1.39 1.03 79 1011.7
20260902172002 79 201 2.0 4.0 0.00 1.39 1.03 80 1011.7
20260902171501 78 240 2.0 4.0 0.00 1.39 1.03 82 1011.9
20260902171137 77 179 1.0 3.0 0.00 1.39 1.03 83 1012.0
20260902171101 78 179 1.0 4.0 0.00 1.39 1.03 82 1012.0
20260902170003 77 179 1.0 4.0 0.00 1.39 1.03 82 1011.9
20260902165502 77 179 1.0 4.0 0.00 1.39 1.03 84 1012.0
20260902165003 76 179 1.0 3.0 0.00 1.39 1.03 85 1012.1
20260902164502 76 179 2.0 3.0 0.00 1.39 1.03 86 1012.2
20260902164003 75 179 2.0 3.0 0.00 1.39 1.03 86 1012.0
20260902163502 74 179 1.0 3.0 0.00 1.39 1.03 88 1011.9
20260902163004 74 179 1.0 2.0 0.00 1.39 1.03 89 1012.1
20260902162816 73 179 1.0 3.0 0.00 1.39 1.03 90 1012.3
20260902162004 73 179 1.0 4.0 0.00 1.39 1.03 92 1012.4
20260902161502 72 179 1.0 4.0 0.00 1.39 1.03 92 1012.2
20260902161004 72 179 0.0 4.0 0.00 1.39 1.03 93 1012.1
20260902160504 72 161 0.0 0.0 0.00 1.39 1.03 94 1011.9
20260902160311 72 158 0.0 0.0 0.00 1.39 1.03 94 1011.9
20260902155502 72 158 0.0 0.0 0.00 1.39 1.03 94 1012.1
20260902155003 72 158 0.0 0.0 0.00 1.39 1.03 95 1012.1
20260902154814 71 158 0.0 0.0 0.00 1.39 1.03 94 1012.3
20260902154004 71 89 0.0 0.0 0.00 1.39 1.03 94 1012.2
20260902153811 71 89 0.0 0.0 0.00 1.39 1.03 95 1012.2
20260902153004 71 89 0.0 0.0 0.00 1.39 1.03 95 1012.2
20260902152811 71 89 0.0 0.0 0.00 1.39 1.03 95 1012.1
20260902152006 70 89 0.0 0.0 0.00 1.39 1.03 95 1012.1
20260902151502 70 89 0.0 0.0 0.00 1.39 1.03 95 1012.1
20260902151005 70 89 0.0 0.0 0.00 1.39 1.03 95 1012.1
20260902150503 70 89 0.0 0.0 0.00 1.39 1.03 95 1012.2
20260902150017 69 83 0.0 0.0 0.00 1.39 1.03 95 1012.1
20260902145502 69 83 0.0 0.0 0.00 1.39 1.03 96 1012.0
20260902145003 69 80 0.0 0.0 0.00 1.39 1.03 96 1011.9
20260902144502 69 80 0.0 0.0 0.00 1.39 1.03 96 1011.9
20260902144007 69 80 0.0 0.0 0.00 1.39 1.03 96 1012.1
20260902143506 69 80 0.0 1.0 0.00 1.39 1.03 96 1012.2
20260902143005 69 80 0.0 1.0 0.00 1.39 1.03 96 1012.4
20260902142545 69 80 0.0 1.0 0.00 1.39 1.03 96 1012.4
20260902141502 68 80 0.0 2.0 0.00 1.39 1.03 96 1012.5
20260902141317 68 80 0.0 0.0 0.00 1.39 1.03 96 1012.7
20260902140458 69 80 0.0 0.0 0.00 1.39 1.03 96 1012.9
20260902135958 68 80 0.0 0.0 0.00 1.39 1.03 96 1012.9
20260902135456 68 80 0.0 0.0 0.00 1.39 1.03 96 1012.9
20260902134956 68 80 0.0 0.0 0.00 1.39 1.03 96 1013.0
20260902134454 67 80 0.0 0.0 0.00 1.39 1.03 96 1013.0
20260902133951 67 80 0.0 0.0 0.00 1.39 1.03 96 1013.2
20260902133453 66 80 0.0 0.0 0.00 1.39 1.03 96 1013.1
20260902132948 66 80 0.0 0.0 0.00 1.39 1.03 96 1012.9
20260902132448 66 80 0.0 0.0 0.00 1.39 1.03 96 1012.8
20260902131948 66 80 0.0 0.0 0.00 1.39 1.03 96 1012.8
20260902131446 66 80 0.0 0.0 0.00 1.39 1.03 96 1012.9
20260902130946 66 80 0.0 0.0 0.00 1.39 1.03 96 1012.9
20260902130749 65 80 0.0 0.0 0.00 1.39 1.03 96 1013.1
20260902125945 65 80 1.0 3.0 0.00 1.39 1.03 96 1013.1
20260902125444 65 80 1.0 3.0 0.00 1.39 1.03 95 1012.8
20260902124943 65 80 1.0 4.0 0.01 1.39 1.03 95 1012.7
20260902124441 65 80 2.0 4.0 0.01 1.39 1.03 95 1012.6
20260902123938 65 82 1.0 3.0 0.01 1.39 1.03 95 1012.6
20260902123744 65 82 1.0 4.0 0.01 1.39 1.03 95 1012.6
20260902122935 65 82 1.0 7.0 0.01 1.39 1.03 95 1012.8
20260902122736 65 89 3.0 7.0 0.01 1.39 1.03 95 1012.8
20260902121936 65 67 3.0 7.0 0.01 1.39 1.03 95 1012.3
20260902121436 65 92 3.0 5.0 0.01 1.39 1.03 95 1012.2
20260902120936 65 68 2.0 4.0 0.01 1.39 1.03 95 1012.6
20260902120436 65 70 2.0 4.0 0.01 1.39 1.03 95 1012.0
20260902115940 65 69 2.0 5.0 0.01 1.39 1.03 95 1012.1
20260902115436 65 67 2.0 5.0 0.01 1.39 1.03 95 1012.6
20260902115244 65 95 1.0 3.0 0.00 1.38 1.02 95 1012.8
20260902114436 65 100 1.0 3.0 0.03 1.38 1.02 95 1013.2
20260902113935 65 100 2.0 6.0 0.13 1.38 1.02 95 1013.2
20260902113434 65 100 1.0 6.0 0.13 1.38 1.02 95 1013.3
20260902112933 65 324 0.0 3.0 0.14 1.38 1.02 95 1013.4
20260902112432 65 304 0.0 2.0 0.14 1.38 1.02 95 1014.0
20260902111931 65 304 0.0 2.0 0.14 1.38 1.02 95 1014.2
20260902111430 65 304 0.0 1.0 0.14 1.38 1.02 95 1014.5
20260902110929 65 304 0.0 1.0 0.14 1.38 1.02 95 1014.2
20260902110429 65 304 0.0 0.0 0.14 1.38 1.02 95 1013.8
20260902105930 65 304 0.0 1.0 0.14 1.38 1.02 95 1013.7
20260902105430 65 304 2.0 8.0 0.14 1.38 1.02 95 1014.0
20260902104929 65 15 4.0 10.0 0.14 1.38 1.02 95 1013.2
20260902104429 65 72 3.0 10.0 0.11 1.35 0.98 95 1012.9
20260902104237 65 101 3.0 10.0 0.01 1.25 0.89 95 1013.8
20260902103429 65 101 5.0 10.0 0.01 1.25 0.89 95 1012.4
20260902102929 65 79 5.0 9.0 0.00 1.24 0.88 95 1011.7
20260902102429 66 76 3.0 7.0 0.00 1.24 0.88 95 1012.0
20260902101929 66 98 1.0 6.0 0.00 1.24 0.88 95 1012.5
20260902101731 66 65 0.0 2.0 0.00 1.24 0.88 95 1012.7
20260902100930 66 65 1.0 3.0 0.00 1.24 0.88 95 1012.8
20260902100429 66 65 1.0 3.0 0.00 1.24 0.88 95 1012.9
20260902095930 66 78 1.0 2.0 0.00 1.24 0.88 95 1012.6
20260902095429 66 78 1.0 2.0 0.00 1.24 0.88 95 1012.4
20260902094930 66 78 1.0 3.0 0.00 1.24 0.88 95 1012.6
20260902094429 66 78 1.0 3.0 0.00 1.24 0.88 95 1012.5
20260902094239 67 78 1.0 3.0 0.00 1.24 0.88 95 1012.9
20260902093736 67 78 2.0 7.0 0.00 1.24 0.88 94 1012.5
20260902092930 67 78 1.0 7.0 0.00 1.24 0.88 95 1012.6
20260902092429 67 47 1.0 3.0 0.00 1.24 0.88 95 1012.6
20260902092230 67 102 2.0 3.0 0.00 1.24 0.88 95 1012.8
20260902091429 67 102 2.0 6.0 0.01 1.24 0.88 95 1012.9
20260902091231 67 102 3.0 6.0 0.03 1.24 0.88 95 1012.9
20260902090430 68 102 1.0 4.0 0.10 1.24 0.88 95 1013.0
20260902085930 68 14 0.0 3.0 0.34 1.24 0.88 95 1013.2
20260902085433 68 14 0.0 3.0 0.42 1.24 0.88 95 1013.3
20260902084929 68 14 0.0 3.0 0.42 1.24 0.88 95 1013.4
20260902084429 68 14 0.0 3.0 0.42 1.24 0.88 95 1013.4
20260902083929 68 14 0.0 3.0 0.42 1.24 0.88 95 1013.3
20260902083429 68 327 1.0 3.0 0.42 1.24 0.88 95 1013.3
20260902082929 68 327 2.0 4.0 0.42 1.24 0.88 95 1013.6
20260902082740 68 327 2.0 4.0 0.42 1.24 0.88 95 1014.0
20260902082240 68 327 2.0 4.0 0.42 1.24 0.87 95 1014.5
20260902081429 68 327 3.0 5.0 0.41 1.23 0.86 95 1014.5
20260902081240 69 327 4.0 9.0 0.39 1.21 0.84 94 1014.2
20260902080429 69 328 7.0 15.0 0.32 1.14 0.77 94 1014.5
20260902075929 69 315 7.0 15.0 0.08 0.90 0.51 95 1014.9
20260902075428 69 292 4.0 14.0 0.00 0.82 0.46 95 1015.0
20260902074929 69 296 0.0 6.0 0.00 0.82 0.46 95 1013.3
20260902074429 69 105 0.0 0.0 0.00 0.82 0.46 95 1011.0
20260902074050 69 105 0.0 0.0 0.00 0.82 0.46 95 1011.1
20260902074021 69 105 0.0 0.0 0.00 0.82 0.46 95 1011.1
20260902072929 69 105 0.0 0.0 0.00 0.82 0.46 95 1011.2
20260902072843 69 105 0.0 0.0 0.00 0.82 0.46 95 1011.3
20260902072836 69 105 0.0 0.0 0.00 0.82 0.46 95 1011.3
20260902071429 69 105 0.0 0.0 0.00 0.82 0.46 94 1011.3
20260902070929 69 105 0.0 0.0 0.00 0.82 0.46 95 1011.2
20260902070430 69 105 0.0 0.0 0.00 0.82 0.46 95 1011.0
20260902065932 69 105 0.0 0.0 0.00 0.82 0.46 95 1011.1
20260902065430 69 105 0.0 0.0 0.00 0.82 0.46 94 1011.3
20260902064932 69 105 0.0 0.0 0.00 0.82 0.46 94 1011.3
20260902064429 69 105 0.0 0.0 0.00 0.82 0.46 94 1011.3
20260902063928 69 105 0.0 0.0 0.00 0.82 0.46 94 1011.2
20260902063423 69 105 0.0 0.0 0.00 0.82 0.46 94 1011.2
20260902063042 69 105 2.0 8.0 0.21 0.82 0.46 94 1011.3
20260902063008 69 105 0.0 2.0 0.00 0.82 0.46 94 1011.2
20260902061917 69 105 4.0 8.0 0.46 0.82 0.46 93 1011.2
20260902061537 69 94 1.0 4.0 0.46 0.82 0.46 93 1011.1
20260902061506 69 100 3.0 7.0 0.46 0.82 0.46 93 1011.0
20260902060411 69 101 0.0 4.0 0.46 0.82 0.46 92 1011.3
20260902055909 69 315 0.0 0.0 0.46 0.82 0.46 92 1011.7
20260902055413 70 315 1.0 3.0 0.46 0.82 0.46 92 1012.0
20260902054910 70 315 2.0 4.0 0.47 0.82 0.46 92 1012.0
20260902054409 71 315 2.0 4.0 0.48 0.82 0.46 92 1012.2
20260902053908 71 315 4.0 12.0 0.54 0.82 0.46 92 1012.1
20260902053409 71 171 8.0 24.0 0.62 0.82 0.46 92 1011.3
20260902052907 71 76 7.0 24.0 0.67 0.82 0.45 93 1011.2
20260902052404 70 292 2.0 20.0 0.51 0.59 0.08 93 1013.3